Tracking 20475 objects as of 26-Feb-2020
HD Live streaming from Space Station
objects crossing your sky now

ARIANE 42L+3 R/B

Track ARIANE 42L+3 R/B now!


NORAD ID: 23671
Int'l Code: 1995-049B
Perigee: 374.5 km
Apogee: 35,808.4 km
Inclination: 7.2 °
Period: 634.6 minutes
Semi major axis: 24462 km
RCS: 18.3882 m2 (large)
Launch date: September 24, 1995
Source: France (FR)
Launch site: FRENCH GUIANA (FRGUI)

Note: This is a ROCKET BODY
aabbcc
Your satellite tracking list
Your tracking list is empty




NASA's NSSDC Master Catalog

Two Line Element Set (TLE):
1 23671U 95049B   20056.14689693 +.00000024 +00000-0 +28412-3 0  9991
2 23671 007.2264 271.3450 7242514 231.1111 038.5371 02.26909984199824
Source of the keplerian elements: AFSPC